This is the latest recevied weather packets stored in our database for station/object K1KOF. If no packets are shown the sender has not sent any weather packets the latest 10 day(s).
| Time | Temp. | Humidity | Pressure | Rain* | Wind** | Luminosity | Snow |
|---|---|---|---|---|---|---|---|
| 1777579646 | 24.44° C | 67% | 1019.6 hPa | 0 mm | - | 575 W/m² | - |
| 1777579344 | 25° C | 66% | 1019.5 hPa | 0 mm | - | 471 W/m² | - |
| 1777579040 | 25° C | 69% | 1019.4 hPa | 0 mm | - | 637 W/m² | - |
| 1777578735 | 25° C | 68% | 1019.8 hPa | 0 mm | - | 675 W/m² | - |
| 1777578429 | 24.44° C | 66% | 1019.6 hPa | 0 mm | - | 654 W/m² | - |
| 1777578125 | 25° C | 67% | 1019.7 hPa | 0 mm | - | 580 W/m² | - |
| 1777577821 | 25° C | 68% | 1019.5 hPa | 0 mm | - | 558 W/m² | - |
| 1777577517 | 25.56° C | 69% | 1019.9 hPa | 0 mm | - | 656 W/m² | - |
| 1777577214 | 25° C | 70% | 1019.9 hPa | 0 mm | - | 586 W/m² | - |
| 1777576910 | 23.89° C | 71% | 1020.1 hPa | 0 mm | - | 542 W/m² | - |
| 1777576604 | 24.44° C | 73% | 1020.1 hPa | 0 mm | - | 498 W/m² | - |
| 1777576300 | 23.89° C | 72% | 1020 hPa | 0 mm | - | 328 W/m² | - |
| 1777575997 | 23.89° C | 74% | 1020.1 hPa | 0 mm | - | 599 W/m² | - |
| 1777575693 | 25° C | 71% | 1020.1 hPa | 0 mm | - | 517 W/m² | - |
| 1777575388 | 23.33° C | 72% | 1020.2 hPa | 0 mm | - | 745 W/m² | - |
| 1777575085 | 23.33° C | 72% | 1020.2 hPa | 0 mm | - | 721 W/m² | - |
| 1777574781 | 23.89° C | 71% | 1020.1 hPa | 0 mm | - | 542 W/m² | - |
| 1777574479 | 23.33° C | 75% | 1020 hPa | 0 mm | - | 513 W/m² | - |
| 1777574175 | 24.44° C | 76% | 1020.1 hPa | 0 mm | - | 582 W/m² | - |
| 1777573870 | 23.89° C | 77% | 1020.4 hPa | 0 mm | - | 503 W/m² | - |
| 1777573565 | 23.89° C | 77% | 1020.1 hPa | 0 mm | - | 602 W/m² | - |
| 1777573261 | 23.33° C | 79% | 1020.3 hPa | 0 mm | - | 561 W/m² | - |
| 1777572958 | 23.33° C | 80% | 1020.2 hPa | 0 mm | - | 602 W/m² | - |
| 1777572654 | 23.33° C | 79% | 1020.3 hPa | 0 mm | - | 531 W/m² | - |
| 1777572353 | 22.78° C | 80% | 1020.3 hPa | 0 mm | - | 547 W/m² | - |
* Rain latest hour (hover to see other rain measurements)
** Current wind speed in m/s (hover to see current wind gust speed)